Terminal Aerodrome Forecast
Issued by NWS Miami, FL

Home | Current Version | Previous Version | Text Only | Print | Product List | Glossary On
Versions: 1 2 3 4 5 6 7 8 9 10 11 12 13 14 15 16 17 18 19 20 21 22 23 24 25 26 27 28 29 30
000
FTUS42 KMFL 241728
TAFAPF
TAF
KAPF 241728Z 2418/2518 24011KT P6SM SKC
     FM250300 VRB03KT P6SM SKC
      TEMPO 2510/2513 5SM BR
     FM251500 26007KT P6SM FEW030=

USA.gov is the U.S. government's official web portal to all federal, state and local government web resources and services.